Regional Weather Roundup
Issued by NWS Newport/Morehead, NC

Current Version | Previous Version | Text Only | Print | Product List | Glossary On
Versions: 1 2 3 4 5 6 7 8 9 10 11 12 13 14 15 16 17 18 19 20 21 22 23 24 25 26 27 28 29 30 31 32 33 34 35 36 37 38 39 40 41 42 43 44 45 46 47 48 49 50
000
ASUS42 KMHX 200014
RWRMHX
WEATHER ROUNDUP FOR EASTERN NORTH CAROLINA
NATIONAL WEATHER SERVICE NEWPORT/MOREHEAD CITY NC
800 PM EDT THU APR 19 2018

NOTE: "FAIR" INDICATES FEW OR NO CLOUDS BELOW 12,000 FEET
WITH NO SIGNIFICANT WEATHER AND/OR OBSTRUCTIONS TO VISIBILITY

NCZ015>017-031-032-045>047-102-103-200100-
NORTH COAST

CITY           SKY/WX    TMP DP  RH WIND       PRES   REMARKS
EDENTON        FAIR      62  36  37 NW12G17   30.00R
ELIZABETH CITY FAIR      59  48  67 N9        29.98R
KITTY HAWK     FAIR      51  43  73 N6        29.97R
MANTEO         FAIR      53  42  66 NE10G17   29.99R

$$

NCZ045>047-081-094-103-104-200100-
CENTRAL COAST

CITY           SKY/WX    TMP DP  RH WIND       PRES   REMARKS
FRISCO         FAIR      57  47  69 NE10G21   29.96R

$$

NCZ095-097-098-100-101-200100-
SOUTHERN COAST

CITY           SKY/WX    TMP DP  RH WIND       PRES   REMARKS
BEAUFORT       MOCLDY    66  42  41 N16       29.96R
CEDAR ISLAND   NOT AVBL
JACKSONVILLE   FAIR      66  38  35 N20G30    29.97R
PINEY ISLAND   NOT AVBL
WILMINGTON     FAIR      70  40  33 N10G25    29.95R


$$

NCZ011>013-027>030-043-044-078>080-089-090>093-098-200100-
COASTAL PLAIN

CITY           SKY/WX    TMP DP  RH WIND       PRES   REMARKS
AHOSKIE        FAIR      56  31  38 NW5       30.03R
CLINTON        FAIR      61  35  36 N9G20     30.03R
ELIZABETHTOWN  FAIR      64  35  33 MISG      30.00R
GOLDSBORO      FAIR      59  33  37 N9        30.02R
GREENVILLE     FAIR      59  32  36 NW8G16    30.04R
HAVELOCK       NOT AVBL
KENANSVILLE    FAIR      61  34  36 N13G22    30.01R
KINSTON        FAIR      59  32  36 N13G22    30.03R
NEW BERN       FAIR      62  39  42 N13G25    29.99R
RICHLANDS      FAIR      64  37  36 N12G18    30.00R
ROCKY MOUNT    FAIR      55  31  39 NW13G28   30.05R
WASHINGTON     FAIR      59  33  37 N9G18     30.01R
WHITEVILLE     FAIR      69  38  33 N12G23    29.98R

$$

AMZ130-135-150-152-154-156-158-170-250-252-270-ANZ085-086-088-633-658-670-200100-
MARINE OBSERVATIONS

STATION/POSITION TIME  TEMP    WIND        PRES    WAVE   SWELL
                       AIR SEA DIR/SP/G            HT/PER HT/PER
                 (UTC) (F)     (DEG/KT/KT) (MB)    (FT/S) (FT/S)
CHESAPEAKE LIGHT NOT AVBL
64 E VA BEACH    2350   50 51   10/ 10/ 12 1015.1    5/ 5   3/ 8
DUCK             2342      51   30/ 12/ 14 1014.6
2 E DUCK         0000      49                N/A     4/ 5   2/14
OREGON INLET     2348           20/ 13/ 17   N/A
13E OREGON INLT  2348      52                N/A     4/ 8   3/ 8
HATTERAS CG      2342      64   40/ 15/ 21 1014.1
DIAMOND BUOY     0000   60 67   20/ 25/ 33 1013.9
CAPE LOOKOUT     0000          350/ 17/ 20 1014.5
BEAUFORT LAB     2342      65  360/ 18/ 25 1014.0
30 SE NEW RVR IN 2308   67 66  240/ 17/ 23 1011.4
30 SE NEW RVR IN 0000      66                N/A     8/ 7
27 SE WRIGHTSVLE 2308   66 65  230/ 19/ 27 1011.8
5 SE WRIGHTSVLE  2308   65 61  250/ 12/ 17 1011.4
225 S CAPE HAT   0000   73 71  230/ 17/ 21 1014.9
41 SE CHARLESTON 0000   70 68  220/ 16/ 19 1014.0

$$




USA.gov is the U.S. government's official web portal to all federal, state and local government web resources and services.